EW6959 Weather Reports


time (UTC)temp
C
wind
direction
speed
KPH
gust
KPH
rain 1hr
cm
rain 24hr
cm
rain mn
cm
humidity
%
barometer
mb
20260503193047 26 344 0.0 4.8 0.00 0.00 0.00 51 1012.3
20260503191543 25 37 0.0 4.8 0.00 0.00 0.00 52 1012.6
20260503190044 25 52 0.0 8.0 0.00 0.00 0.00 56 1012.6
20260503184535 24 345 0.0 6.4 0.00 0.00 0.00 57 1012.8
20260503183030 23 346 0.0 6.4 0.00 0.00 0.00 59 1013.0
20260503181524 22 355 0.0 6.4 0.00 0.00 0.00 63 1013.1
20260503180021 21 360 0.0 6.4 0.00 0.00 0.00 64 1013.2
20260503174516 20 352 0.0 3.2 0.00 0.00 0.00 67 1013.2
20260503173014 20 354 1.6 6.4 0.00 0.00 0.00 69 1013.3
20260503171510 19 359 0.0 1.6 0.00 0.00 0.00 73 1013.3
20260503081501 13 331 0.0 0.0 0.00 0.00 0.00 80 1014.0
20260503071557 14 331 0.0 0.0 0.00 0.00 0.00 76 1014.2
20260503054549 16 331 0.0 0.0 0.00 0.00 0.00 70 1013.9
20260503053049 17 331 0.0 0.0 0.00 0.00 0.00 69 1013.9
20260503051549 17 331 0.0 0.0 0.00 0.00 0.00 68 1013.8
20260503050048 17 331 0.0 0.0 0.00 0.00 0.00 67 1013.8
20260503044551 17 331 0.0 0.0 0.00 0.00 0.00 66 1013.7
20260503043047 18 331 0.0 0.0 0.00 0.00 0.00 65 1013.5
20260503041546 18 331 0.0 3.2 0.00 0.00 0.00 64 1013.3
20260503040045 18 345 0.0 4.8 0.00 0.00 0.00 63 1013.1
20260503034548 19 342 0.0 0.0 0.00 0.00 0.00 63 1012.8
20260503033046 20 342 0.0 0.0 0.00 0.00 0.00 61 1012.6
20260503031554 20 342 0.0 0.0 0.00 0.00 0.00 60 1012.4
20260503030047 21 342 0.0 3.2 0.00 0.00 0.00 58 1012.3
20260503024546 21 342 1.6 4.8 0.00 0.00 0.00 56 1012.2
20260503023042 22 354 0.0 4.8 0.00 0.00 0.00 56 1012.2
20260503021546 22 354 0.0 4.8 0.00 0.00 0.00 54 1012.2
20260503020046 23 348 0.0 3.2 0.00 0.00 0.00 54 1012.2
20260503014541 23 347 0.0 8.0 0.00 0.00 0.00 52 1012.2
20260503013043 24 356 1.6 6.4 0.00 0.00 0.00 50 1012.1
20260503011543 25 348 0.0 6.4 0.00 0.00 0.00 49 1012.2
20260503010039 25 359 0.0 4.8 0.00 0.00 0.00 49 1012.2
20260503004534 25 351 0.0 4.8 0.00 0.00 0.00 49 1012.4
20260503003034 25 330 0.0 8.0 0.00 0.00 0.00 50 1012.4
20260503001532 26 3 0.0 6.4 0.00 0.00 0.00 50 1012.5
20260503000043 26 360 0.0 4.8 0.00 0.00 0.00 52 1012.6
20260502234531 26 2 0.0 6.4 0.00 0.00 0.00 51 1012.7
20260502233029 26 353 0.0 4.8 0.00 0.00 0.00 51 1012.9
20260502231525 26 359 0.0 6.4 0.00 0.00 0.00 52 1013.1
20260502230022 26 6 0.0 6.4 0.00 0.00 0.00 52 1013.3
20260502224518 26 325 0.0 6.4 0.00 0.00 0.00 54 1013.5
20260502223015 25 339 0.0 4.8 0.00 0.00 0.00 56 1013.7
20260502221511 25 15 0.0 4.8 0.00 0.00 0.00 56 1013.9
20260502220009 25 354 0.0 0.0 0.00 0.00 0.00 54 1014.0
20260502214506 25 348 0.0 6.4 0.00 0.00 0.00 55 1014.2
20260502213005 24 359 0.0 4.8 0.00 0.00 0.00 56 1014.2
20260502211502 24 36 0.0 8.0 0.00 0.00 0.00 57 1014.4
20260502210058 23 359 0.0 3.2 0.00 0.00 0.00 59 1014.6
20260502204555 23 337 0.0 6.4 0.00 0.00 0.00 61 1014.8
20260502203052 22 347 1.6 9.7 0.00 0.00 0.00 62 1014.8
20260502201547 21 353 0.0 6.4 0.00 0.00 0.00 63 1015.0
20260502200043 21 345 1.6 8.0 0.00 0.00 0.00 65 1015.1
20260502194541 20 17 0.0 6.4 0.00 0.00 0.00 63 1015.2